Location: Saint Mary
(48.7436°N, 113.4291°W)
Time: 16:39:48
(UTC+00:00)

ISS - Visible Passes

Search period start: 07 December 2025 00:00
Search period end: 17 December 2025 00:00
Orbit: 416 x 421 km, 51.6° (Epoch: 06 December)

Date Brightness Start Highest point End Pass type
(mag) Time Alt. Az. Time Alt. Az. Time Alt. Az.
11 Dec 0.0 13:59:29 10° SE 14:00:03 10° SE 14:00:37 10° ESE visible
13 Dec -1.2 13:57:46 10° SSW 14:00:31 23° SE 14:03:17 10° E visible
14 Dec -0.8 13:10:37 10° S 13:12:43 16° SE 13:14:50 10° E visible
15 Dec -2.9 13:57:47 10° SW 14:01:04 50° SSE 14:04:21 10° ENE visible
16 Dec -2.2 13:11:37 22° SSW 13:13:07 34° SE 13:16:13 10° E visible
